Regional Weather Roundup
Issued by NWS

Home | Current Version | Previous Version | Graphics & Text | Print | Product List | Glossary On
Versions: 1 2 3 4 5 6 7 8 9 10 11 12 13 14 15 16 17 18 19 20 21 22 23 24 25 26 27 28 29 30 31 32 33 34 35 36 37 38 39 40 41 42 43 44 45 46 47 48 49 50
000
ASUS45 KCYS 220410
RWRWY

WYOMING REGIONAL WEATHER ROUNDUP
NATIONAL WEATHER SERVICE CHEYENNE WY
900 PM MST TUE NOV 21 2017

NOTE:  "FAIR" INDICATES FEW OR NO CLOUDS BELOW 12,000 FEET
WITH NO SIGNIFICANT WEATHER AND/OR OBSTRUCTIONS TO VISIBILITY.

WYZ001-220500-
YELLOWSTONE NATIONAL PARK

CITY           SKY/WX    TMP DP  RH WIND       PRES   REMARKS
LK YELLOWSTONE   N/A     33  32  96 CALM      30.36F
W YELLOWSTONE  NOT AVBL

$$
WYZ002>013-054>058-071-098>099-220500-
NORTHERN WYOMING

CITY           SKY/WX    TMP DP  RH WIND       PRES   REMARKS
JACKSON        CLOUDY    37  36  96 NE7       30.35S WCI  32
CODY           FAIR      37  29  72 VRB5      30.17F WCI  33
GREYBULL       CLOUDY    36  30  79 CALM      30.22R
WORLAND        FAIR      33  30  88 SE5       30.21S WCI  29
SHERIDAN       FAIR      34  32  92 CALM      30.13F
BUFFALO        FAIR      39  23  52 S6        30.14S WCI  35
GILLETTE       FAIR      41  27  57 SW16      30.13F
HULETT         FAIR      32  27  80 W8        30.15S WCI  25
NEWCASTLE      FAIR      27  21  80 CALM      30.22R

$$
WYZ014>020-022>026-101>103-220500-
CENTRAL WYOMING

CITY           SKY/WX    TMP DP  RH WIND       PRES   REMARKS
BIG PINEY      FAIR      32  30  92 S3        30.39S
PINEDALE       CLOUDY    34  32  93 CALM      30.40S
DUBOIS         FAIR      37  32  81 NW15G22   30.27F WCI  28
LANDER         FAIR      39  30  70 N12       30.22R WCI  32
RIVERTON       FAIR      40  30  67 CALM      30.23R
CASPER         FAIR      45  32  60 SW16      30.22R
DOUGLAS        FAIR      30  28  92 CALM      30.21R

$$
WYZ021-027>030-104>119-220500-
SOUTHERN WYOMING

CITY           SKY/WX    TMP DP  RH WIND       PRES   REMARKS
EVANSTON       FAIR      41  36  82 S7        30.43S
KEMMERER       FAIR      36  34  93 NW7       30.43R WCI  30
FORT BRIDGER   FAIR      41  39  93 SW8       30.45S
ROCK SPRINGS   FAIR      42  34  73 SW12      30.40R
DIXON          FAIR      35  32  89 CALM      30.44R
RAWLINS        MOCLDY    42  34  73 VRB5      30.35R
SARATOGA       FAIR      39  32  75 SW9       30.38R WCI  33
LARAMIE        FAIR      37  29  72 VRB6      30.28S WCI  32
CHEYENNE       FAIR      33  33 100 SW7       30.25F WCI  27
TORRINGTON     FAIR      30  25  81 E9        30.19F WCI  22
PINE BLUFFS    FAIR      34  32  93 MISG      30.25F

$$



USA.gov is the U.S. government's official web portal to all federal, state and local government web resources and services.